Regional Weather Roundup
Issued by NWS

Home | Current Version | Previous Version | Graphics & Text | Print | Product List | Glossary On
Versions: 1 2 3 4 5 6 7 8 9 10 11 12 13 14 15 16 17 18 19 20 21 22 23 24 25 26 27 28 29 30 31 32 33 34 35 36 37 38 39 40 41 42 43 44 45 46 47 48 49 50
000
ASUS43 KFSD 021710
RWRSD

WEATHER ROUNDUP FOR SOUTH DAKOTA
NATIONAL WEATHER SERVICE SIOUX FALLS SD
1100 AM CST MON MAR 02 2015

NOTE: "FAIR" INDICATES FEW OR NO CLOUDS BELOW 12,000 FEET WITH NO
SIGNIFICANT WEATHER AND/OR OBSTRUCTIONS TO VISIBILITY.


SDZ001>005-009-010-012>017-021800-
NORTHWEST AND NORTH CENTRAL SOUTH DAKOTA

CITY           SKY/WX    TMP DP  RH WIND       PRES   REMARKS
BUFFALO          N/A     28  14  55 S13       29.78F WCI  17
FAITH            N/A     33  13  43 S30G38    29.89F WCI  19
MOBRIDGE       SUNNY     29  16  58 S24G33    30.02F WCI  15
$$

SDZ012>016-024>037-041>051-057-063-072>074-021800-
SOUTHWEST AND SOUTH CENTRAL SOUTH DAKOTA

CITY           SKY/WX    TMP DP  RH WIND       PRES   REMARKS
RAPID CTY ARPT MOSUNNY   36  22  56 S24G33    29.88F
PIERRE         MOSUNNY   34  14  43 SE18G28   30.07F WCI  23
CUSTER         SUNNY     29  18  63 SW12G21   29.82F WCI  19
ELLSWORTH AFB  MOSUNNY   35  21  57 S21G29    29.84F WCI  24
PHILIP         SUNNY     41  14  33 S25G36    29.98F
PINE RIDGE     SUNNY     38  16  40 S30G45    29.91F
SPEARFISH      FAIR      28  14  54 W5        29.84S WCI  23
WINNER         CLOUDY    36  12  37 S24G35    30.12F
$$

SDZ004>011-016>023-039-040-021800-
NORTHEAST SOUTH DAKOTA

CITY           SKY/WX    TMP DP  RH WIND       PRES   REMARKS
ABERDEEN       SUNNY     24  13  62 S25G33    30.24F WCI   8
WATERTOWN      SUNNY     19  11  70 S16       30.28F WCI   4
SISSETON         N/A     26   8  46 S17       30.30  WCI  13
$$

SDZ017-020-022-023-036>040-048>070-021800-
SOUTHEAST SOUTH DAKOTA

CITY           SKY/WX    TMP DP  RH WIND       PRES   REMARKS
SIOUX FALLS    CLOUDY    24  13  62 S14       30.36F WCI  12
HURON          MOSUNNY   27  17  66 S23G31    30.26F WCI  12
CHAMBERLAIN    CLOUDY    33  14  46 S21G26    30.17F WCI  20
MITCHELL       CLOUDY    30  14  51 SE22G30   30.29F WCI  17
YANKTON        PTSUNNY   28  12  50 SE17      30.36F WCI  16
$$

ABBREVIATIONS USED IN REMARKS
   TC - TEMPERATURE IN CELSIUS
  WCI - WIND CHILL INDEX
   HX - HEAT INDEX
  VSB - VISIBILITY




USA.gov is the U.S. government's official web portal to all federal, state and local government web resources and services.